Location: Nairn
(57.5833°N, 3.8667°W)
Time: 18:49:37
(UTC+00:00)

N. Korean satellite - Visible Passes

Search period start: 06 December 2021 00:00
Search period end: 16 December 2021 00:00
Orbit: 446 x 495 km, 97.3° (Epoch: 06 December)

Date Brightness Start Highest point End Pass type
(mag) Time Alt. Az. Time Alt. Az. Time Alt. Az.
06 Dec 7.5 05:24:50 10° NNE 05:28:07 44° E 05:31:22 10° S visible
06 Dec 7.6 06:58:26 10° N 07:01:08 22° WNW 07:03:49 10° WSW visible
06 Dec 9.6 17:41:24 10° SW 17:43:39 16° W 17:45:54 10° NW visible
07 Dec 8.8 04:56:37 10° NE 04:59:25 23° E 05:02:12 10° SSE visible
07 Dec 6.8 06:29:34 10° N 06:32:45 39° WNW 06:35:56 10° SW visible
07 Dec 8.7 17:11:48 10° SSW 17:14:53 28° W 17:17:56 10° NNW visible
08 Dec 9.7 04:28:55 10° ENE 04:30:35 13° E 04:32:16 10° ESE visible
08 Dec 6.2 06:00:52 10° NNE 06:04:17 76° WNW 06:07:39 10° SSW visible
08 Dec 8.3 07:35:31 10° NNW 07:36:53 12° NW 07:38:14 10° WNW visible
08 Dec 7.3 16:42:46 10° S 16:46:12 54° W 16:49:36 10° NNW visible
09 Dec 7.1 05:32:20 10° NNE 05:35:41 53° E 05:39:00 10° S visible
09 Dec 7.8 07:06:06 10° NNW 07:08:36 19° WNW 07:11:07 10° WSW visible
09 Dec 9.7 17:49:25 10° WSW 17:51:16 14° W 17:53:06 10° NW visible
10 Dec 8.5 05:04:00 10° NE 05:06:59 27° E 05:09:56 10° SSE visible
10 Dec 7.0 06:37:08 10° N 06:40:14 33° WNW 06:41:20 26° WSW visible
10 Dec 9.0 17:19:33 10° SSW 17:22:27 24° W 17:25:19 10° NW visible
11 Dec 9.5 04:36:04 10° NE 04:41:35 - SE 04:37:41 15° E visible
11 Dec 6.3 06:08:22 10° N 06:15:43 - SSW 06:11:43 63° WNW visible
11 Dec 8.5 07:43:34 10° NW 07:44:17 11° NW 07:45:00 10° WNW visible
11 Dec 7.7 16:50:22 10° S 16:53:42 45° W 16:57:01 10° NNW visible
12 Dec 7.2 05:39:46 10° NNE 05:47:22 - S 05:42:21 46° NE visible
12 Dec 7.9 07:13:43 10° NNW 07:16:00 17° WNW 07:16:24 17° WNW visible
12 Dec 6.5 16:21:36 10° SSE 16:25:04 90° N 16:28:31 10° NNW visible
12 Dec 9.9 17:57:34 10° WSW 17:58:48 12° W 18:00:03 10° WNW visible
13 Dec 8.6 05:11:21 10° NNE 05:18:54 - S 05:13:06 23° NE visible
13 Dec 7.4 06:44:39 10° N 06:47:09 27° NW 06:47:09 27° NW visible
13 Dec 9.3 17:27:16 10° SW 17:29:55 21° W 17:32:35 10° NW visible
14 Dec 9.5 04:43:14 10° NE 04:50:22 - SSE 04:43:54 13° NE visible
14 Dec 7.3 06:15:48 10° N 06:24:28 - SSW 06:17:58 34° NNW visible
14 Dec 8.1 16:57:54 10° SSW 17:01:08 38° W 17:04:22 10° NNW visible
15 Dec 8.0 05:47:08 10° NNE 05:55:53 - SSW 05:48:49 27° NNE visible
15 Dec 8.2 07:21:17 10° NNW 07:22:52 15° NW 07:22:52 15° NW visible
15 Dec 6.7 16:29:01 10° S 16:32:26 76° WSW 16:35:52 10° NNW visible
